Location: Rio Negrinho
(26.2394°S, 49.4999°W)
Time: 19:50:19
(UTC+00:00)

SKYMED 2 - Visible Passes

Search period start: 25 September 2020 00:00
Search period end: 05 October 2020 00:00
Orbit: 621 x 623 km, 97.9° (Epoch: 25 September)

Date Brightness Start Highest point End Pass type
(mag) Time Alt. Az. Time Alt. Az. Time Alt. Az.
25 Sep 6.6 08:27:52 10° SE 08:31:13 21° E 08:34:32 10° NNE visible
28 Sep 6.8 21:45:37 10° NW 21:48:10 15° W 21:50:44 10° WSW visible
29 Sep 7.3 08:06:24 10° E 08:07:04 10° E 08:07:44 10° ENE visible
30 Sep 6.7 08:22:12 10° SE 08:25:12 18° E 08:28:09 10° NE visible
03 Oct 6.7 21:39:08 10° NW 21:42:08 18° W 21:45:08 10° SW visible
04 Oct 7.3 21:59:29 10° WNW 22:00:15 10° W 22:01:01 10° W visible
